User: anonymous   Login
Location: Radford
(37.1320°N, 80.5770°W)
Time: 05:14:15
(UTC-05:00)
Language:

Okean 1-7 - Orbit

View from above orbital plane
View from above orbital plane
View from above satellite
View from above satellite

Ground track
Ground track

The orbit data is extracted from the following two-line orbital elements,

1 23317U 94066A   15024.57574647  .00000943  00000-0  10412-3 0  7689
2 23317 082.5362 220.2683 0021593 086.8779 326.9864 14.86237741 95984
Epoch (UTC): 24 January 2015 13:49:04
Eccentricity: 0.0021593
inclination: 82.5362°
perigee height: 594 km
apogee height: 625 km
right ascension of ascending node: 220.2683°
argument of perigee: 86.8779°
revolutions per day: 14.86237741
mean anomaly at epoch: 326.9864°
orbit number at epoch: 9598

The dashed part of the orbit path shows where the satellite is in the earth's shadow,  

DLR